Location: Erlenbach
(47.3023°N, 8.5927°E)
Time: 00:46:28
(UTC+00:00)

Daily predictions for brighter satellites

Satellite Brightness Start Highest point End
(mag) Time Altitude Azimuth Time Altitude Azimuth Time Altitude Azimuth
Cosmos 1464 Rocket 3.9 00:08:47 63° SSW 00:09:55 86° W 00:16:11 10° N
Cosmos 2219 Rocket 2.1 00:05:17 10° NNW 00:10:57 70° WSW 00:11:13 69° SW
Cosmos 1782 Rocket 3.9 00:12:54 60° NW 00:12:54 60° NW 00:16:45 10° N
Lacrosse 4 Rocket 1.9 00:13:01 56° NNW 00:13:01 56° NNW 00:16:51 10° NNE
Cosmos 1354 Rocket 3.9 00:16:38 79° SSW 00:16:59 88° ESE 00:22:22 10° NNE
Cosmos 2322 Rocket 4.3 00:15:54 10° WNW 00:17:43 13° W 00:17:43 13° W
Cosmos 968 Rocket 3.8 00:19:13 51° W 00:19:45 53° WNW 00:24:47 10° NNE
SL-4 R/B 3.6 00:22:19 24° ENE 00:22:19 24° ENE 00:23:56 10° ENE
SL-16 R/B 4.2 00:17:29 10° N 00:22:13 26° NE 00:26:56 10° ESE
COSMOS 2428 2.8 00:23:25 10° NW 00:29:02 57° WSW 00:29:11 57° WSW
SL-16 R/B 3.0 00:28:37 29° SE 00:31:46 56° ENE 00:37:53 10° N
Nadezhda 4 Rocket 3.9 00:27:41 10° NNW 00:34:00 75° W 00:35:18 57° SSW
BREEZE-M TANK 4.1 00:36:08 23° E 00:36:08 23° E 00:37:58 10° E
Cosmos 2360 Rocket 4.0 00:30:32 10° WNW 00:33:24 17° W 00:33:24 17° W
CENTAUR R/B 4.3 00:28:53 10° W 00:34:34 30° NNW 00:41:07 10° NE
CZ-2D R/B 3.0 00:31:34 10° NNE 00:36:44 40° E 00:38:05 35° SE
Cosmos 2034 Rocket 4.0 00:35:41 56° SSW 00:37:03 76° W 00:43:23 10° N
USA 267 4.3 00:32:04 10° E 00:38:13 45° NNE 00:44:22 10° NW
Okean 2 Rocket 3.0 00:41:46 83° NW 00:41:46 83° NW 00:46:12 10° N
GEOS 3 Rocket 3.6 00:36:23 10° NE 00:41:50 84° SE 00:42:46 63° SSW
ADEOS II 4.0 00:41:11 10° NE 00:45:01 20° E 00:47:28 15° SE
Cosmos 1975 4.4 00:45:31 26° WNW 00:45:31 26° WNW 00:48:32 10° NNW
Cosmos 1092 Rocket 3.9 00:39:50 10° N 00:46:09 87° E 00:48:01 48° S
Cosmos 1975 Rocket 4.3 00:42:17 10° NNW 00:45:36 30° WNW 00:45:36 30° WNW
Cosmos 2297 Rocket 2.7 00:45:36 42° SE 00:46:39 47° ESE 00:52:04 10° NE
Cosmos 2219 3.4 00:45:50 48° SSE 00:46:50 55° ESE 00:52:19 10° NE
Cosmos 1980 3.6 00:42:27 10° NNW 00:48:10 89° ENE 00:49:51 48° SSE
Sich 1 Rocket 4.1 00:48:43 45° WNW 00:48:43 45° WNW 00:52:50 10° N
Cosmos 2333 Rocket 3.1 00:43:29 10° NW 00:48:12 33° W 00:48:12 33° W
Helios 1B rocket 3.2 00:45:09 10° N 00:48:49 41° WNW 00:48:49 41° WNW
Cosmos 1777 Rocket 4.0 00:49:00 58° SSE 00:49:48 68° ESE 00:55:04 10° NNE
Meteor 1-29 4.0 00:49:38 10° N 00:52:12 40° NNW 00:52:12 40° NNW
UNK 3.9 00:52:22 52° SE 00:53:22 68° ENE 00:58:02 10° N
Cosmos 44 Rocket 3.6 00:50:47 10° NW 00:55:08 52° W 00:55:08 52° W
Cosmos 1300 Rocket 3.6 00:57:53 61° WNW 00:57:53 61° WNW 01:02:06 10° N
Cosmos 2237 Rocket 2.1 00:52:32 10° NNW 00:58:13 83° WSW 00:59:51 48° SSE
DELTA 2 DEB (DPAF) 3.9 01:00:27 78° SW 01:00:40 81° WSW 01:05:07 10° NNW
Okean 1 Rocket 3.5 01:01:02 48° ESE 01:01:36 52° E 01:05:49 10° NNE
Cosmos 1626 4.1 00:59:50 10° NNE 01:02:58 25° ENE 01:04:26 19° ESE
CZ-4C R/B 3.4 01:04:19 63° NNE 01:04:19 63° NNE 01:07:26 10° N
Spot 1 4.1 01:06:48 58° WNW 01:06:48 58° WNW 01:10:33 10° NNW
Cosmos 2151 Rocket 3.7 01:12:29 56° W 01:12:44 57° WNW 01:17:05 10° N
Timation 2 Rocket 4.0 01:14:35 42° SW 01:16:42 68° WNW 01:22:45 10° NNE
Cosmos 1707 4.3 01:14:41 10° NNW 01:17:05 24° WNW 01:17:05 24° WNW
In-Cosmos 22 4.4 01:12:46 10° NNW 01:18:13 52° W 01:19:14 46° SW
Cosmos 1805 3.1 01:24:26 71° SSE 01:24:45 78° E 01:28:39 10° NNE
Meteor 1-15 Rocket 4.1 01:22:53 45° SSW 01:24:45 85° WNW 01:30:24 10° N
SJ 16-02 2.2 01:25:10 33° SE 01:26:22 41° ESE 01:30:33 10° NE
SL-14 R/B 4.3 01:22:56 10° N 01:26:43 43° ENE 01:28:23 27° SE
DNEPR-1 R/B 3.9 01:21:33 10° NW 01:27:30 89° SW 01:31:05 19° SE
ERBS 2.7 01:24:26 10° NW 01:27:43 61° NE 01:30:58 10° ESE
Cosmos 1538 Rocket 4.2 01:30:07 10° NNW 01:35:04 47° WSW 01:35:51 44° SW
Cosmos 2227 Rocket 2.1 01:33:34 42° SSW 01:35:37 88° WNW 01:41:20 10° NNE
Cosmos 1025 Rocket 4.4 01:33:08 10° NW 01:36:08 23° WNW 01:36:08 23° WNW
Cosmos 1455 Rocket 4.3 01:34:24 22° SE 01:36:38 36° E 01:40:43 10° NNE
Resurs 1-4 Rocket 2.2 01:32:23 10° N 01:37:38 65° WNW 01:39:24 40° SW
Cosmos 1674 3.1 01:36:30 10° NNW 01:39:47 44° W 01:39:47 44° W
Cosmos 1733 3.1 01:42:54 61° S 01:43:31 89° ESE 01:47:23 10° N
Cosmos 1892 Rocket 3.9 01:39:10 10° N 01:43:38 66° ENE 01:46:08 25° SSE
Cosmos 2279 Rocket 3.9 01:44:46 33° SSW 01:47:43 77° W 01:53:56 10° N
ATLAS 3B R/B 4.4 01:42:22 10° WNW 01:47:47 26° NNW 01:53:17 10° NNE
USA 215 3.3 01:41:32 10° NE 01:48:05 69° SE 01:51:29 31° SW
Cosmos 1461 4.0 01:47:03 29° SSE 01:48:29 37° ESE 01:52:38 10° NE
Cosmos 2026 Rocket 4.4 01:43:22 10° NNW 01:49:03 43° W 01:51:08 32° SW
COBE Rocket 3.7 01:47:33 35° S 01:49:31 77° WSW 01:54:11 10° NNW
Lacrosse 4 Rocket 4.0 01:50:41 10° NW 01:52:15 12° NW 01:53:48 10° NNW
Cosmos 1634 Rocket 4.5 01:50:26 31° SW 01:53:01 46° WNW 01:59:01 10° N
Cosmos 2219 Rocket 4.3 01:52:34 10° W 01:52:54 10° W 01:52:54 10° W
FALCON 9 DEB 4.1 01:50:34 10° WNW 01:54:00 49° NNE 01:57:23 10° E
SL-24 R/B 4.3 01:53:41 34° S 01:55:47 74° W 02:00:47 10° N
Cosmos 2082 3.7 01:53:29 32° SSW 01:56:11 80° ESE 02:01:49 10° NNE
Cosmos 1340 Rocket 4.0 01:54:19 20° SSE 01:56:34 37° E 02:00:16 10° NNE
SL-4 R/B 1.4 01:58:01 18° WNW 02:00:27 86° SSW 02:03:51 10° ESE
Cosmos 2112 Rocket 4.0 01:55:25 10° NNW 02:00:41 86° ENE 02:05:53 10° SSE
Cosmos 1953 4.4 01:59:54 10° SE 02:03:06 23° E 02:06:20 10° NE
Meteor 1-24 Rocket 3.6 02:00:08 10° NNW 02:05:36 67° W 02:08:55 23° S
CBERS-1 4.0 02:01:22 10° NNE 02:06:30 77° WNW 02:09:09 29° SSW
SL-16 R/B 2.2 02:01:10 10° NNW 02:06:50 65° WSW 02:12:26 10° SSE
Cosmos 1726 4.0 02:04:07 10° SSE 02:07:09 26° E 02:10:15 10° NNE
Meteor 2-5 Rocket 4.0 02:03:50 10° NNW 02:09:15 48° W 02:11:59 27° SSW
Cosmos 1937 Rocket 4.2 02:06:56 19° S 02:10:34 51° ESE 02:15:44 10° NNE
ARIANE 5 R/B 2.9 02:08:48 10° NNE 02:13:59 62° ESE 02:18:02 17° S
H-2A R/B 3.8 02:10:35 10° SE 02:14:15 32° ENE 02:17:55 10° N
Cosmos 1898 Rocket 3.6 02:11:41 24° S 02:14:52 74° ESE 02:20:06 10° NNE
SL-16 R/B 3.5 02:13:42 24° WSW 02:15:42 28° W 02:21:02 10° NW
NPP 4.4 02:10:45 10° N 02:15:43 39° WNW 02:18:23 24° WSW
CZ-2D R/B 3.1 02:11:48 10° N 02:16:41 34° WNW 02:19:24 22° WSW
IDEFIX/ARIANE 42P 3.5 02:11:52 10° NNE 02:16:50 44° E 02:21:47 10° S
Cosmos 1680 Rocket 3.5 02:13:17 10° NNW 02:18:26 59° WSW 02:22:58 13° S
NOSS 3-1 (C) 3.6 02:17:24 23° SSW 02:20:51 60° ESE 02:27:03 10° NE
USA 267 3.3 02:14:20 10° ESE 02:20:54 89° NE 02:27:29 10° NW
Cosmos 1544 Rocket 3.7 02:20:01 20° S 02:23:02 78° E 02:27:32 10° NNE
ADEOS II 2.2 02:19:57 10° N 02:25:09 61° WNW 02:28:23 23° SW
Cosmos 1607 4.1 02:19:23 10° NW 02:25:38 53° WSW 02:31:52 10° SSE
Cosmos 990 Rocket 3.9 02:23:20 24° SSW 02:26:33 83° WNW 02:31:46 10° NNE
IRS-1D 3.9 02:24:07 10° N 02:28:57 48° WNW 02:31:54 22° SW
Cosmos 2263 Rocket 3.3 02:23:55 10° S 02:29:01 39° ESE 02:34:09 10° NE
Meteor 1-22 Rocket 4.4 02:27:11 24° SW 02:30:10 50° WNW 02:35:20 10° N
Cosmos 2297 Rocket 3.3 02:27:24 18° WSW 02:30:54 33° NW 02:36:00 10° NNE
Cosmos 2219 4.5 02:27:45 16° W 02:31:18 29° NW 02:36:11 10° N
Okean 1-7 Rocket 3.8 02:27:52 10° NNW 02:32:10 51° W 02:35:04 19° SSW
ERS-1 4.4 02:28:05 10° NNE 02:33:06 90° WNW 02:36:58 17° SSW
IRS-1C 4.1 02:29:26 10° N 02:34:46 71° WNW 02:38:42 18° SSW
Cosmos 1626 3.3 02:35:05 10° NW 02:38:09 24° W 02:38:56 22° WSW
Meteor 1-28 Rocket 3.3 02:36:22 19° S 02:38:54 52° W 02:42:39 10° NNW
Cosmos 2266 Rocket 4.2 02:32:53 10° NNW 02:39:05 56° W 02:45:02 11° SSW
Cosmos 1655 Rocket 4.5 02:34:02 10° NNW 02:39:51 42° W 02:44:28 16° SSW
Cosmos 2237 Rocket 3.9 02:38:49 10° WNW 02:41:21 13° W 02:41:37 13° W
Cosmos 1602 Rocket 3.8 02:37:14 10° N 02:41:37 70° E 02:45:56 10° SSE
CZ-4B R/B 4.4 02:37:54 10° N 02:42:07 31° WNW 02:44:51 18° WSW
Cosmos 1470 3.1 02:41:43 22° SW 02:44:00 50° WNW 02:47:54 10° N
CZ-2C R/B 4.3 02:41:11 10° NE 02:44:56 24° E 02:48:41 10° SSE
Cosmos 1603 3.9 02:40:38 10° NNW 02:46:25 77° ENE 02:52:07 10° SSE
SL-08 R/B 3.7 02:43:56 12° S 02:48:15 45° W 02:53:02 10° NNW
USA 229 DEB 3.7 02:48:34 16° SW 02:54:01 84° SE 03:00:56 10° NE
USA 229 3.7 02:48:40 16° SW 02:54:05 84° SE 03:01:00 10° NE
Cosmos 2098 Rocket 4.1 02:49:42 10° NNW 02:54:08 38° W 02:59:34 10° SSW
Nadezhda 2 Rocket 4.5 02:50:53 10° N 02:57:10 86° W 03:03:19 10° S
NOSS 3 (A) 4.3 02:55:49 22° SW 02:57:24 88° NW 03:00:21 10° NE
ERBS 3.7 03:01:25 10° W 03:03:39 17° SW 03:05:52 10° S
Meteor 2-14 Rocket 4.4 02:57:58 10° NNW 03:03:59 68° W 03:09:59 10° S
NOSS 2-3 (C) 3.9 03:01:07 13° SSW 03:04:52 69° SE 03:09:52 10° NE
NOSS 3-1 (A) 3.5 03:00:07 12° SSW 03:05:07 74° SE 03:11:30 10° NE
SJ 16-02 2.8 03:02:10 13° WSW 03:05:07 24° WNW 03:08:45 10° N
CSL-04 DEB 4.4 03:05:53 10° S 03:09:42 53° WSW 03:13:34 10° NNW
MSX 3.9 03:07:07 10° NNE 03:12:55 90° E 03:18:42 10° SSW
Cosmos 1943 3.1 03:08:00 10° NNW 03:13:39 80° WSW 03:19:16 10° SSE
PSLV R/B 4.4 03:09:36 10° NNE 03:13:55 53° E 03:18:11 10° S
Cosmos 1626 Rocket 4.0 03:10:24 10° NNW 03:14:27 40° W 03:18:28 10° SSW
Cosmos 1455 Rocket 4.4 03:11:32 13° WSW 03:14:34 24° WNW 03:18:12 10° NNW
Cosmos 1758 4.4 03:13:24 13° SW 03:16:26 28° WNW 03:19:58 10° NNW
Resurs 1-4 Rocket 4.2 03:14:43 10° NNW 03:16:27 12° NW 03:18:11 10° WNW
Spot 4 Rocket 4.3 03:12:26 10° N 03:17:29 55° WNW 03:22:29 10° SW
Meteor 1-21 Rocket 4.3 03:12:52 10° NNW 03:18:17 55° W 03:23:39 10° S
Cosmos 2227 Rocket 4.0 03:16:27 10° W 03:20:31 20° NW 03:24:36 10° N
SeaSat 1 2.6 03:16:39 10° NNE 03:21:38 77° ESE 03:26:33 10° SSW
Landsat 5 3.5 03:20:42 10° S 03:24:28 50° W 03:28:24 10° NNW
CZ-2C R/B 3.0 03:21:51 10° N 03:25:41 53° WNW 03:29:23 10° SSW
CZ-2D R/B 4.3 03:23:30 10° N 03:27:12 34° WNW 03:30:48 10° SW
Cosmos 1461 4.1 03:23:34 10° WSW 03:27:37 35° NW 03:31:50 10° NNE
Cosmos 1048 Rocket 4.1 03:25:11 10° NNW 03:30:21 86° ENE 03:35:31 10° SSE
FALCON 9 DEB 3.7 03:27:44 10° WNW 03:30:58 36° SW 03:34:11 10° SSE
USA 215 3.8 03:24:40 10° NE 03:31:00 53° NNW 03:37:18 10° W
Cosmos 2227 4.4 03:25:18 10° SW 03:31:02 68° WNW 03:36:49 10° NNE
Cosmos 1758 Rocket 3.5 03:28:12 10° NNW 03:32:30 68° W 03:36:47 10° S
ATLAS CENTAUR R/B 3.2 03:29:16 10° S 03:32:49 27° ESE 03:36:11 10° ENE
ATLAS 3B CENTAUR R/B 4.4 03:28:24 10° WSW 03:33:03 14° SSW 03:36:23 10° S
Cosmos 1340 Rocket 4.4 03:30:13 10° WSW 03:33:10 20° WNW 03:36:08 10° NNW
ERS-2 2.6 03:32:19 10° S 03:35:45 39° W 03:39:12 10° NNW
Cosmos 2228 3.2 03:32:49 10° S 03:37:11 81° E 03:41:36 10° N
Cosmos 1953 3.3 03:35:46 10° SW 03:39:21 31° WNW 03:42:58 10° N
SL-4 R/B 3.1 03:37:22 10° W 03:39:34 16° SW 03:41:46 10° S
